Location: Devore Heights
(34.2372°N, 117.4156°W)
Time: 23:35:37
(UTC+00:00)

Explorer 11/Cluster Stage 4 - Pass Details

Date: 16 September 2024
Orbit: 464 x 1207 km, 28.8° (Epoch: 14 October)

Event Time Altitude Azimuth Distance (km) Brightness Sun altitude
Exits shadow 11:51:02 10° 182° (S) 2,366 8.8 -21.7°
Maximum altitude 11:54:16 15° 148° (SSE) 2,155 9.0 -21.0°
Drops below altitude 10° 11:57:51 10° 114° (ESE) 2,678 10.0 -20.3°
Sets 12:01:56 0° 94° (E) 3,789 11.4 -19.5°
